Colby, KS

5:56 AM CST on December 10, 2016 (GMT -0600)
Shaltz

Weather History for KCBK - March, 2013

Change the Weather History Date:

Saturday, March 16, 2013

  Actual Average (KGLD) Record (KGLD)
Temperature  
Mean Temperature 41 °F -  
Max Temperature 50 °F 52 °F 89 °F (2015)
Min Temperature 32 °F 26 °F 7 °F (1928)
Degree Days  
Heating Degree Days 24    
Moisture  
Dew Point 33 °F    
Average Humidity 79    
Maximum Humidity 93    
Minimum Humidity 66    
Precipitation  
Precipitation 0.00 in - - ()
Sea Level Pressure  
Sea Level Pressure 29.98 in    
Wind  
Wind Speed 12 mph (NE)    
Max Wind Speed 17 mph    
Max Gust Speed 20 mph    
Visibility 10 miles    
Events      
Averages and records for this station are not official NWS values.
T = Trace of Precipitation, MM = Missing Value Source: NWS Daily Summary

Daily Weather History Graph

Daily Weather History Graph

Search for Another Location

Airport or City:

Trip Planner

Search our weather history database for the weather conditions in past years. The results will help you decide how hot, cold, wet, or windy it might be!

Date:

Astronomy

Mar. 16, 2013 Rise Set
Actual Time 7:53 AM CDT 7:52 PM CDT
Civil Twilight 7:26 AM CDT 8:19 PM CDT
Nautical Twilight 6:55 AM CDT 8:50 PM CDT
Astronomical Twilight 6:24 AM CDT 9:22 PM CDT
Moon 10:26 AM CDT (3/16) 12:05 AM CDT (3/16)
Length of Visible Light 12h 52m
Length of Day
11h 58m
Waxing Crescent, 23% of the Moon is Illuminated
Mar 16
Waxing Crescent
Mar 19
First Quarter
Mar 27
Full
Apr 2
Last Quarter
Apr 10
New

Hourly Weather History & Observations

Time (CDT) Temp. Windchill Dew Point Humidity Pressure Visibility Wind Dir Wind Speed Gust Speed Precip Events Conditions
12:35 AM 50.0 °F - 41.0 °F 71% 29.86 in 10.0 mi NE 11.5 mph - N/A   Clear
12:55 AM 48.2 °F - 41.0 °F 76% 29.87 in 10.0 mi NE 11.5 mph - N/A   Clear
1:15 AM 46.4 °F 41.5 °F 41.0 °F 81% 29.88 in 10.0 mi NE 10.4 mph - N/A   Clear
1:35 AM 46.4 °F 40.4 °F 39.2 °F 76% 29.88 in 10.0 mi NE 13.8 mph - N/A   Clear
1:55 AM 46.4 °F 41.5 °F 37.4 °F 71% 29.89 in 10.0 mi NE 10.4 mph - N/A   Clear
2:15 AM 42.8 °F 36.6 °F 37.4 °F 81% 29.91 in 10.0 mi NNE 11.5 mph - N/A   Clear
2:35 AM 44.6 °F 37.8 °F 37.4 °F 76% 29.92 in 10.0 mi NNE 15.0 mph 19.6 mph N/A   Clear
2:55 AM 44.6 °F 37.4 °F 35.6 °F 71% 29.93 in 10.0 mi NE 16.1 mph - N/A   Clear
3:15 AM 42.8 °F 35.4 °F 35.6 °F 76% 29.93 in 10.0 mi NNE 15.0 mph - N/A   Clear
3:35 AM 42.8 °F 35.1 °F 33.8 °F 70% 29.93 in 10.0 mi NNE 16.1 mph - N/A   Clear
3:55 AM 41.0 °F 34.3 °F 33.8 °F 76% 29.94 in 10.0 mi NNE 11.5 mph - N/A   Clear
4:15 AM 41.0 °F 33.9 °F 33.8 °F 76% 29.95 in 10.0 mi NNE 12.7 mph - N/A   Clear
4:35 AM 41.0 °F 33.9 °F 33.8 °F 76% 29.95 in 10.0 mi NNE 12.7 mph - N/A   Clear
4:55 AM 41.0 °F 34.3 °F 35.6 °F 81% 29.96 in 10.0 mi North 11.5 mph - N/A   Clear
5:15 AM 41.0 °F 34.3 °F 35.6 °F 81% 29.96 in 10.0 mi NNE 11.5 mph - N/A   Clear
5:35 AM 41.0 °F 33.1 °F 35.6 °F 81% 29.97 in 10.0 mi NNE 15.0 mph - N/A   Clear
5:55 AM 41.0 °F 33.5 °F 35.6 °F 81% 29.98 in 10.0 mi NNE 13.8 mph - N/A   Clear
6:35 AM 41.0 °F 33.9 °F 33.8 °F 76% 29.98 in 10.0 mi NNE 12.7 mph - N/A   Clear
6:55 AM 39.2 °F 32.0 °F 33.8 °F 81% 29.98 in 10.0 mi NNE 11.5 mph - N/A   Clear
7:15 AM 39.2 °F 30.8 °F 33.8 °F 81% 30.00 in 10.0 mi North 15.0 mph - N/A   Clear
7:35 AM 37.4 °F 29.8 °F 33.8 °F 87% 30.00 in 10.0 mi NNE 11.5 mph 17.3 mph N/A   Clear
7:55 AM 37.4 °F 30.8 °F 33.8 °F 87% 30.00 in 10.0 mi NNE 9.2 mph - N/A   Clear
8:15 AM 35.6 °F 28.6 °F 33.8 °F 93% 29.99 in 10.0 mi NNE 9.2 mph - N/A   Clear
8:35 AM 35.6 °F 27.5 °F 33.8 °F 93% 30.00 in 10.0 mi NNE 11.5 mph - N/A   Clear
8:55 AM 35.6 °F 27.5 °F 33.8 °F 93% 30.00 in 10.0 mi NE 11.5 mph - N/A   Clear
9:15 AM 35.6 °F 27.1 °F 33.8 °F 93% 30.01 in 10.0 mi NNE 12.7 mph - N/A   Clear
9:35 AM 35.6 °F 25.9 °F 33.8 °F 93% 30.02 in 10.0 mi NNE 16.1 mph - N/A   Scattered Clouds
9:55 AM 35.6 °F 27.1 °F 33.8 °F 93% 30.02 in 10.0 mi NNE 12.7 mph - N/A   Scattered Clouds
10:15 AM 37.4 °F 28.5 °F 33.8 °F 87% 30.02 in 10.0 mi NNE 15.0 mph - N/A   Scattered Clouds
10:35 AM 37.4 °F 28.5 °F 33.8 °F 87% 30.02 in 10.0 mi NNE 15.0 mph - N/A   Scattered Clouds
10:55 AM 37.4 °F 28.2 °F 32.0 °F 81% 30.03 in 10.0 mi NNE 16.1 mph - N/A   Scattered Clouds
11:15 AM 39.2 °F 31.2 °F 32.0 °F 75% 30.04 in 10.0 mi NNE 13.8 mph - N/A   Clear
11:35 AM 37.4 °F 28.9 °F 32.0 °F 81% 30.04 in 10.0 mi NNE 13.8 mph 17.3 mph N/A   Clear
11:55 AM 37.4 °F 29.8 °F 32.0 °F 81% 30.04 in 10.0 mi NE 11.5 mph - N/A   Mostly Cloudy
12:15 PM 37.4 °F 30.3 °F 32.0 °F 81% 30.06 in 10.0 mi NNE 10.4 mph - N/A   Overcast
12:35 PM 37.4 °F 30.8 °F 32.0 °F 81% 30.05 in 10.0 mi NNE 9.2 mph - N/A   Overcast
12:55 PM 39.2 °F 34.2 °F 32.0 °F 75% 30.05 in 10.0 mi NE 6.9 mph - N/A   Mostly Cloudy
1:15 PM 41.0 °F 35.2 °F 32.0 °F 70% 30.05 in 10.0 mi NNE 9.2 mph - N/A   Mostly Cloudy
1:35 PM 41.0 °F 34.7 °F 32.0 °F 70% 30.04 in 10.0 mi NE 10.4 mph - N/A   Mostly Cloudy
1:55 PM 41.0 °F 33.9 °F 32.0 °F 70% 30.03 in 10.0 mi NNE 12.7 mph - N/A   Overcast
2:15 PM 42.8 °F 39.3 °F 32.0 °F 66% 30.02 in 10.0 mi NNE 5.8 mph 17.3 mph N/A   Overcast
2:35 PM 42.8 °F 38.0 °F 32.0 °F 66% 30.02 in 10.0 mi East 8.1 mph - N/A   Overcast
2:55 PM 41.0 °F 35.8 °F 32.0 °F 70% 30.02 in 10.0 mi NE 8.1 mph - N/A   Overcast
3:15 PM 41.0 °F 35.8 °F 32.0 °F 70% 30.01 in 10.0 mi ENE 8.1 mph - N/A   Overcast
3:35 PM 41.0 °F 36.4 °F 32.0 °F 70% 30.00 in 10.0 mi NNE 6.9 mph - N/A   Overcast
3:55 PM 41.0 °F 37.1 °F 32.0 °F 70% 30.01 in 10.0 mi North 5.8 mph - N/A   Overcast
4:15 PM 41.0 °F 37.1 °F 32.0 °F 70% 29.99 in 10.0 mi NE 5.8 mph - N/A   Overcast
4:35 PM 41.0 °F 34.3 °F 32.0 °F 70% 29.97 in 10.0 mi NNE 11.5 mph - N/A   Overcast
4:55 PM 41.0 °F 35.8 °F 32.0 °F 70% 29.97 in 10.0 mi ENE 8.1 mph - N/A   Overcast
5:15 PM 41.0 °F 34.7 °F 32.0 °F 70% 29.97 in 10.0 mi ENE 10.4 mph - N/A   Mostly Cloudy
5:55 PM 41.0 °F 35.8 °F 32.0 °F 70% 29.98 in 10.0 mi ENE 8.1 mph - N/A   Mostly Cloudy
6:15 PM 41.0 °F 35.2 °F 32.0 °F 70% 29.98 in 10.0 mi ENE 9.2 mph - N/A   Overcast
6:35 PM 41.0 °F 34.3 °F 32.0 °F 70% 29.98 in 10.0 mi East 11.5 mph - N/A   Overcast
6:55 PM 41.0 °F 35.2 °F 32.0 °F 70% 29.98 in 10.0 mi East 9.2 mph - N/A   Overcast
7:15 PM 39.2 °F 31.6 °F 30.2 °F 70% 29.98 in 10.0 mi East 12.7 mph - N/A   Overcast
7:35 PM 39.2 °F 32.0 °F 30.2 °F 70% 29.98 in 10.0 mi East 11.5 mph - N/A   Overcast
7:55 PM 37.4 °F 28.5 °F 32.0 °F 81% 29.98 in 10.0 mi East 15.0 mph - N/A   Overcast
8:15 PM 37.4 °F 28.2 °F 32.0 °F 81% 29.98 in 10.0 mi East 16.1 mph - N/A   Overcast
8:35 PM 35.6 °F 25.9 °F 32.0 °F 87% 29.97 in 10.0 mi East 16.1 mph 19.6 mph N/A   Overcast
8:55 PM 35.6 °F 25.5 °F 32.0 °F 87% 29.97 in 10.0 mi East 17.3 mph - N/A   Overcast
9:15 PM 33.8 °F 23.2 °F 32.0 °F 93% 29.97 in 10.0 mi East 17.3 mph - N/A   Overcast
9:55 PM 33.8 °F 25.3 °F 30.2 °F 87% 30.00 in 10.0 mi East 11.5 mph - N/A   Overcast
10:15 PM 33.8 °F 25.8 °F 30.2 °F 87% 30.00 in 10.0 mi SE 10.4 mph - N/A   Overcast
10:35 PM 33.8 °F 25.3 °F 30.2 °F 87% 29.98 in 10.0 mi SSE 11.5 mph - N/A   Light Drizzle
10:55 PM 33.8 °F 25.3 °F 30.2 °F 87% 29.96 in 10.0 mi SSE 11.5 mph 18.4 mph N/A   Overcast
11:15 PM 33.8 °F 25.8 °F 30.2 °F 87% 29.98 in 10.0 mi SSE 10.4 mph - N/A   Mostly Cloudy
11:35 PM 32.0 °F 24.2 °F 30.2 °F 93% 29.97 in 10.0 mi ESE 9.2 mph - N/A   Scattered Clouds
11:55 PM 32.0 °F 22.5 °F 30.2 °F 93% 29.96 in 10.0 mi East 12.7 mph - N/A   Clear